Location: Newark
(45.7425°N, 0.7617°W)
Time: 21:27:59
(UTC+00:00)

LilacSat-2 - Pass Details

Date: 08 April 2020
Orbit: 512 x 536 km, 97.5° (Epoch: 06 June)

Event Time Altitude Azimuth Distance (km) Brightness Sun altitude
Rises 04:36:26 0° 36° (NE) 2,694 ? -9.7°
Reaches altitude 10° 04:40:42 10° 81° (E) 1,788 ? -9.0°
Maximum altitude 04:41:09 10° 88° (E) 1,777 ? -8.9°
Drops below altitude 10° 04:41:35 10° 95° (E) 1,785 ? -8.9°
Sets 04:45:48 0° 140° (SE) 2,659 ? -8.2°
